[[{"header":{"parameterUnit":"m.s-1","parameterCategory":1,"la1":30.2991,"la2":30.254,"lo1":-89.0895,"lo2":-89.0444,"dx":0.0017,"dy":0.0017,"nx":28,"ny":28,"refTime":"2022-12-14T09:00:00:Z","depth":0,"parameterNumber":2,"parameterNumberName":"U-component_of_WINDS"},"data":[0,0,0,0,0,0,0,0,0,0,0,0,0,0,0,0,0,0,0,0,0,0,0,0,0,0,0,0,0,0,0,0,0,0,0,0,0,0,0,0,0,0,0,0,0,0,0,0,0,0,0,0,0,0,0,0,0,0,2.7756,2.7757,0,2.7796,2.7797,2.7797,2.7757,2.7755,2.7754,2.7752,2.7793,2.7795,2.7798,0,0,0,0,0,0,0,0,0,0,0,0,0,2.7645,2.7647,2.7756,2.7757,2.7757,2.7796,2.7797,2.7797,2.7757,2.7755,2.7753,2.7752,2.7792,2.7795,2.7798,0,0,0,0,0,0,0,0,0,0,0,0,0,2.769,2.7648,2.7756,2.7742,2.7741,2.7796,2.7797,2.7797,2.7758,2.7755,2.7753,2.7751,2.7791,2.7795,2.7799,2.7869,0,0,2.781,2.7812,0,0,0,0,0,0,0,0,2.7688,2.7694,2.7744,2.7743,2.7742,2.7769,2.7772,2.7822,2.7758,2.7751,2.7752,2.775,2.7787,2.7791,2.7804,2.7871,2.7873,2.7811,2.7813,2.7815,2.7816,0,0,0,0,0,0,0,2.7684,2.7692,2.7772,2.7744,2.7744,2.7734,2.7737,2.7781,2.7782,2.7752,2.7749,2.7754,2.7786,2.78,2.7804,2.7874,2.7811,2.7814,2.7816,2.7818,2.8001,2.8003,0,0,0,0,0,0,2.7683,2.769,2.7771,2.7773,2.7709,2.7737,2.7742,2.7763,2.7781,2.7782,2.7756,2.7752,2.7795,2.78,2.7806,2.7889,2.7815,2.7818,2.782,2.7998,2.8001,2.8004,0,0,0,0,0,0,2.7681,2.7691,2.7769,2.7731,2.774,2.7742,2.7766,2.7765,2.7779,2.7785,2.7785,2.777,2.7793,2.78,2.7854,2.789,2.782,2.7823,2.7995,2.7999,2.8003,2.8056,0,0,0,0,0,0,2.7678,2.769,2.7717,2.7732,2.7742,2.7817,2.7768,2.7767,2.7786,2.7781,2.7798,2.7798,2.7792,2.7848,2.7858,2.7894,2.7826,2.7992,2.7997,2.8001,2.8051,2.8062,2.807,0,0,0,0,0,2.7674,2.7731,2.7719,2.7728,2.7776,2.7819,2.7825,2.7816,2.7789,2.7816,2.7819,2.7798,2.7885,2.7854,2.7864,2.7902,2.799,2.7996,2.8001,2.8047,2.806,2.807,0,0,0,0,0,0,2.772,2.7732,2.7719,2.7782,2.78,2.7812,2.7846,2.783,2.7855,2.785,2.7838,2.7842,2.7898,2.7906,2.7872,2.7971,2.7933,2.7941,2.7964,2.7976,2.7985,2.7982,2.7829,0,0,0,0,0,2.7737,2.7771,2.778,2.7835,2.7845,2.7844,2.7862,2.7854,2.7872,2.7879,2.7887,2.7905,2.7936,2.7957,2.7986,2.8053,2.8056,2.8084,2.8093,2.8101,2.8108,2.8143,2.8156,2.8023,2.8023,2.8023,0,0,2.7774,2.7785,2.7807,2.7845,2.7857,2.7893,2.7851,2.789,2.7915,2.7885,2.7935,2.7942,2.7961,2.8022,2.8049,2.803,2.8145,2.8109,2.8115,2.8117,2.815,2.8163,2.8174,2.8027,2.8026,2.8026,0,0,2.7858,2.787,2.7917,2.793,2.795,2.7949,2.7961,2.7976,2.7979,2.8029,2.8007,2.8038,2.8092,2.8106,2.8121,2.8211,2.8192,2.8221,2.827,2.8304,2.8315,2.8324,2.8355,2.8366,2.8228,2.8228,2.8228,0,2.7901,2.7953,2.7943,2.7983,2.8,2.7975,2.8022,2.8036,2.8064,2.8076,2.8054,2.8122,2.8133,2.8196,2.8218,2.8231,2.8243,2.8218,2.8314,2.8323,2.8332,2.8361,2.8373,2.8231,2.8231,2.823,2.823,0,2.8004,2.804,2.8076,2.8104,2.8125,2.8168,2.8165,2.8188,2.8178,2.8179,2.8231,2.8244,2.8275,2.8289,2.828,2.8351,2.8339,2.8316,2.8276,2.8348,2.8375,2.8386,2.8236,2.8235,2.8234,2.8233,0,0,2.8117,2.8139,2.8152,2.8164,2.8184,2.8212,2.8255,2.8285,2.8304,2.8325,2.836,2.8407,2.8386,2.8402,2.8394,2.8425,2.8494,2.8398,2.8399,2.8415,2.8572,2.8588,2.8602,2.8482,2.8485,2.8486,2.857,0,2.8201,2.8274,2.8267,2.8337,2.837,2.8346,2.8383,2.8399,2.8402,2.8431,2.8434,2.8466,2.8437,2.8446,2.8476,2.848,2.8526,2.8474,2.8514,2.8515,2.8508,2.8616,2.8633,2.8712,2.8581,2.8583,2.8584,0,2.8308,2.8332,2.8406,2.842,2.8434,2.8467,2.8494,2.8522,2.854,2.854,2.8558,2.8545,2.8588,2.8549,2.8606,2.8571,2.8588,2.8592,2.8595,2.8597,2.8553,2.862,2.8737,2.8748,2.8601,2.86,2.8599,0,2.8382,2.8433,2.8483,2.8495,2.8513,2.8537,2.8546,2.8562,2.858,2.8604,2.8616,2.8644,2.866,2.8682,2.8677,2.8649,2.8736,2.8697,2.8736,2.8736,2.8754,2.8753,2.8874,2.8767,2.8767,2.8767,2.8767,0,2.8476,2.8521,2.8517,2.8547,2.8597,2.8589,2.8638,2.8644,2.8658,2.869,2.8672,2.8701,2.8693,2.8723,2.8719,2.8767,2.8775,2.8775,2.8774,2.8776,2.8776,2.8786,2.878,2.877,2.8769,2.8769,2.8768,0,2.8566,2.8565,2.8618,2.8632,2.8636,2.8672,2.8683,2.8712,2.8714,2.8753,2.8762,2.8764,2.8798,2.8796,2.8834,2.8831,2.889,2.8883,2.8884,2.8882,2.8921,2.8917,2.9052,2.9068,2.8952,2.8953,2.8954,0,2.8626,2.866,2.8677,2.8696,2.8707,2.8739,2.8758,2.875,2.8771,2.8794,2.882,2.8852,2.8877,2.8932,2.8936,2.8965,2.8958,2.9003,2.8962,2.8963,2.8957,2.8954,2.8957,2.901,2.9012,2.9013,2.9014,0,2.873,2.8728,2.8756,2.8784,2.8807,2.8828,2.8848,2.8865,2.8859,2.8883,2.8917,2.8937,2.8976,2.9007,2.9035,2.9044,2.9028,2.9027,2.9037,2.904,2.9038,2.9038,2.8905,2.9023,2.9022,2.9022,2.9021,2.9021,2.8806,2.8835,2.8852,2.8883,2.8897,2.8916,2.8943,2.8948,2.8976,2.9007,2.9001,2.904,2.9056,2.9092,2.9104,2.9133,2.9117,2.9132,2.9136,2.914,2.9144,2.9035,2.9138,2.9138,2.9138,2.9138,2.9137,0,2.8909,2.8919,2.8948,2.8975,2.9,2.8983,2.9004,2.9026,2.906,2.9077,2.9102,2.9141,2.9172,2.9179,2.9208,2.9231,2.9224,2.9239,2.9236,2.9238,2.9157,2.9144,2.9243,2.9243,2.9243,2.9243,2.9243,2.9243,2.8966,2.9014,2.9013,2.9068,2.9077,2.9114,2.9127,2.9144,2.9158,2.9202,2.9227,2.9232,2.9245,2.9276,2.9303,2.9304,2.9315,2.9333,2.9331,2.9255,2.9244,2.9234,2.9222,2.9336,2.9336,2.941,2.941,2.9411]},{"header":{"parameterUnit":"m.s-1","parameterCategory":1,"la1":30.2991,"la2":30.254,"lo1":-89.0895,"lo2":-89.0444,"dx":0.0017,"dy":0.0017,"nx":28,"ny":28,"refTime":"2022-12-14T09:00:00:Z","depth":0,"parameterNumber":3,"parameterNumberName":"V-component_of_WINDS"},"data":[0,0,0,0,0,0,0,0,0,0,0,0,0,0,0,0,0,0,0,0,0,0,0,0,0,0,0,0,0,0,0,0,0,0,0,0,0,0,0,0,0,0,0,0,0,0,0,0,0,0,0,0,0,0,0,0,0,0,-2.3619,-2.362,0,-2.3717,-2.3718,-2.3719,-2.3716,-2.3715,-2.3714,-2.3712,-2.3813,-2.3816,-2.382,0,0,0,0,0,0,0,0,0,0,0,0,0,-2.3429,-2.3433,-2.3619,-2.362,-2.3621,-2.3717,-2.3718,-2.3719,-2.3717,-2.3715,-2.3713,-2.3712,-2.3811,-2.3816,-2.3821,0,0,0,0,0,0,0,0,0,0,0,0,0,-2.3518,-2.3434,-2.3618,-2.3631,-2.3633,-2.3716,-2.3718,-2.372,-2.3717,-2.3715,-2.3713,-2.3711,-2.381,-2.3815,-2.3821,-2.3898,0,0,-2.3839,-2.3842,0,0,0,0,0,0,0,0,-2.3513,-2.3525,-2.3628,-2.3631,-2.3633,-2.3702,-2.3688,-2.3779,-2.3717,-2.3685,-2.3712,-2.371,-2.3777,-2.3786,-2.3809,-2.3902,-2.3907,-2.384,-2.3843,-2.3846,-2.3847,0,0,0,0,0,0,0,-2.3506,-2.352,-2.3657,-2.363,-2.3633,-2.3632,-2.3643,-2.3705,-2.3741,-2.3688,-2.3688,-2.37,-2.3778,-2.3803,-2.3811,-2.3908,-2.384,-2.3845,-2.3848,-2.3851,-2.4069,-2.4071,0,0,0,0,0,0,-2.3498,-2.3515,-2.3654,-2.366,-2.3567,-2.3637,-2.3649,-2.3682,-2.3741,-2.3748,-2.3701,-2.3699,-2.3794,-2.3804,-2.3814,-2.3907,-2.3846,-2.3851,-2.3855,-2.4066,-2.4069,-2.4072,0,0,0,0,0,0,-2.3494,-2.351,-2.365,-2.3588,-2.3606,-2.3643,-2.368,-2.3685,-2.371,-2.3751,-2.3757,-2.372,-2.3793,-2.3806,-2.3877,-2.3911,-2.3854,-2.3859,-2.4064,-2.4067,-2.407,-2.4094,0,0,0,0,0,0,-2.3488,-2.3509,-2.3538,-2.3589,-2.3609,-2.3711,-2.3682,-2.3688,-2.372,-2.3718,-2.377,-2.3776,-2.3792,-2.3868,-2.3883,-2.3918,-2.3864,-2.4061,-2.4065,-2.4069,-2.409,-2.4097,-2.4104,0,0,0,0,0,-2.3481,-2.3541,-2.354,-2.3556,-2.3647,-2.3713,-2.3725,-2.3742,-2.3723,-2.3752,-2.3779,-2.3775,-2.3905,-2.3875,-2.3892,-2.3929,-2.4059,-2.4064,-2.4069,-2.4087,-2.4096,-2.4104,0,0,0,0,0,0,-2.3494,-2.3548,-2.3547,-2.3625,-2.3664,-2.3713,-2.3751,-2.3751,-2.3797,-2.3794,-2.3813,-2.3824,-2.3895,-2.3919,-2.3885,-2.4006,-2.3979,-2.3988,-2.3987,-2.3996,-2.4003,-2.3995,-2.3869,0,0,0,0,0,-2.3505,-2.3555,-2.3599,-2.3664,-2.3684,-2.3714,-2.3743,-2.3753,-2.3795,-2.3812,-2.3843,-2.3884,-2.3934,-2.3967,-2.4015,-2.4094,-2.4105,-2.4127,-2.4134,-2.414,-2.4147,-2.419,-2.42,-2.4088,-2.4088,-2.4088,0,0,-2.353,-2.3566,-2.3596,-2.3667,-2.3699,-2.3749,-2.3728,-2.3783,-2.382,-2.382,-2.3888,-2.3913,-2.396,-2.4035,-2.4069,-2.4057,-2.418,-2.4146,-2.415,-2.4154,-2.4196,-2.4206,-2.4216,-2.4092,-2.4091,-2.4091,0,0,-2.36,-2.3633,-2.3689,-2.3722,-2.377,-2.379,-2.3804,-2.3852,-2.3868,-2.3937,-2.3938,-2.3983,-2.4069,-2.4102,-2.413,-2.4213,-2.4211,-2.4229,-2.4264,-2.4306,-2.4315,-2.4322,-2.4351,-2.4362,-2.4236,-2.4236,-2.4236,0,-2.3625,-2.3701,-2.3718,-2.3773,-2.3804,-2.3807,-2.3864,-2.3895,-2.3956,-2.3978,-2.3963,-2.4071,-2.4103,-2.4185,-2.4205,-2.4228,-2.4244,-2.4222,-2.4312,-2.432,-2.4328,-2.4356,-2.4366,-2.4237,-2.4237,-2.4237,-2.4237,0,-2.3729,-2.3782,-2.3821,-2.3881,-2.3917,-2.3972,-2.3998,-2.4032,-2.4039,-2.406,-2.413,-2.4168,-2.4224,-2.4244,-2.4251,-2.4327,-2.4318,-2.4308,-2.4281,-2.434,-2.4366,-2.4377,-2.424,-2.4239,-2.4239,-2.4238,0,0,-2.3809,-2.3877,-2.3892,-2.3918,-2.3972,-2.4013,-2.4069,-2.4124,-2.4152,-2.4195,-2.4242,-2.4314,-2.4305,-2.4337,-2.4348,-2.4384,-2.4447,-2.4369,-2.4371,-2.4382,-2.4533,-2.454,-2.4552,-2.4446,-2.4448,-2.445,-2.4528,0,-2.3885,-2.3984,-2.4001,-2.4087,-2.4136,-2.4139,-2.4188,-2.4226,-2.4247,-2.4291,-2.4315,-2.4366,-2.435,-2.4369,-2.4405,-2.4432,-2.4477,-2.4426,-2.449,-2.4492,-2.4477,-2.4566,-2.4574,-2.4646,-2.4539,-2.4541,-2.4542,0,-2.3987,-2.4031,-2.4123,-2.4169,-2.419,-2.4234,-2.4285,-2.4328,-2.4371,-2.4384,-2.4419,-2.4426,-2.4483,-2.4455,-2.4535,-2.4499,-2.4526,-2.4543,-2.4547,-2.4553,-2.452,-2.4574,-2.4669,-2.468,-2.4559,-2.4557,-2.4556,0,-2.4035,-2.4119,-2.4184,-2.4207,-2.4263,-2.4293,-2.4318,-2.436,-2.4391,-2.4436,-2.4456,-2.4507,-2.4535,-2.4574,-2.4595,-2.4572,-2.4673,-2.4646,-2.4685,-2.4684,-2.4705,-2.4703,-2.4806,-2.4724,-2.4724,-2.4723,-2.4723,0,-2.4118,-2.4173,-2.4207,-2.4247,-2.4309,-2.4328,-2.4389,-2.4413,-2.445,-2.4494,-2.45,-2.4542,-2.4566,-2.4612,-2.4628,-2.4691,-2.4704,-2.4716,-2.4719,-2.4715,-2.4713,-2.4732,-2.4727,-2.4726,-2.4726,-2.4725,-2.4725,0,-2.4183,-2.4207,-2.4278,-2.4326,-2.4339,-2.4383,-2.4423,-2.4462,-2.4483,-2.454,-2.4554,-2.4587,-2.4641,-2.4665,-2.4731,-2.4742,-2.4814,-2.4814,-2.4799,-2.48,-2.4837,-2.4833,-2.4955,-2.4972,-2.4879,-2.488,-2.4881,0,-2.4233,-2.4276,-2.4328,-2.4358,-2.4383,-2.4432,-2.4464,-2.4485,-2.4518,-2.457,-2.4603,-2.4657,-2.4701,-2.4786,-2.4816,-2.4867,-2.4868,-2.4907,-2.4876,-2.487,-2.4868,-2.4865,-2.4869,-2.4913,-2.4914,-2.4915,-2.4915,0,-2.432,-2.433,-2.4376,-2.4427,-2.4465,-2.4505,-2.4545,-2.457,-2.4596,-2.4633,-2.4688,-2.4722,-2.479,-2.4843,-2.4896,-2.4921,-2.4923,-2.4925,-2.4937,-2.4932,-2.4922,-2.4927,-2.4814,-2.4922,-2.4921,-2.4921,-2.492,-2.492,-2.4379,-2.4417,-2.4459,-2.451,-2.4542,-2.4579,-2.4618,-2.4644,-2.469,-2.4746,-2.4756,-2.4814,-2.4856,-2.4927,-2.4954,-2.5,-2.499,-2.5007,-2.5011,-2.5015,-2.5017,-2.4915,-2.501,-2.5009,-2.5009,-2.5009,-2.5009,0,-2.4466,-2.4493,-2.454,-2.4595,-2.4635,-2.4633,-2.4677,-2.4711,-2.4762,-2.4801,-2.4844,-2.4907,-2.4958,-2.4993,-2.5045,-2.5075,-2.5077,-2.5088,-2.5086,-2.5091,-2.5023,-2.5007,-2.5085,-2.5085,-2.5085,-2.5085,-2.5085,-2.5085,-2.4516,-2.4579,-2.4594,-2.4674,-2.4701,-2.4758,-2.4783,-2.4817,-2.4848,-2.4918,-2.4961,-2.4983,-2.502,-2.5075,-2.5122,-2.5131,-2.5149,-2.5161,-2.5169,-2.5104,-2.5096,-2.5089,-2.5074,-2.5165,-2.5165,-2.5233,-2.5234,-2.5235]}]]